Regional Weather Roundup
Issued by NWS

Home | Current Version | Previous Version | Graphics & Text | Print | Product List | Glossary On
Versions: 1 2 3 4 5 6 7 8 9 10 11 12 13 14 15 16 17 18 19 20 21 22 23 24 25 26 27 28 29 30 31 32 33 34 35 36 37 38 39 40 41 42 43 44 45 46 47 48 49 50
000
ASUS43 KLMK 281810
RWRKY
KENTUCKY REGIONAL WEATHER ROUNDUP
NATIONAL WEATHER SERVICE LOUISVILLE KY
200 PM EDT TUE MAR 28 2017

NOTE "FAIR" INDICATES FEW OR NO CLOUDS BELOW 12,000 FEET
WITH NO SIGNIFICANT WEATHER AND/OR OBSTRUCTIONS TO VISIBILITY.

KYZ001>023-026-027-061>063-070>075-281900-
WESTERN AND SOUTH CENTRAL KENTUCKY

CITY           SKY/WX    TMP DP  RH WIND       PRES   REMARKS
PADUCAH        CLOUDY    60  51  72 NW6       30.06S
HENDERSON      CLOUDY    57  50  77 NW6       30.05S
OWENSBORO      CLOUDY    58  54  86 NW9       30.05S FOG
HOPKINSVILLE   CLOUDY    61  57  88 NW6       30.04S
BOWLING GREEN  CLOUDY    63  56  78 NW7       30.03S
GLASGOW        CLOUDY    62  53  73 CALM      30.02F
$$

KYZ024-025-028>034-038-045-046-053-281900-
NORTH CENTRAL KENTUCKY

CITY           SKY/WX    TMP DP  RH WIND       PRES   REMARKS
LOUISVILLE/SDF PTSUNNY   66  51  58 NW12      30.00S
LOUISVILLE/LOU CLOUDY    65  52  62 NW9       30.01S
FORT KNOX      CLOUDY    63  53  70 NE5       30.00R
$$

KYZ035>037-039>044-047>052-055>060-089>105-281900-
NORTHEAST KENTUCKY

CITY           SKY/WX    TMP DP  RH WIND       PRES   REMARKS
LEXINGTON      CLOUDY    60  54  80 NW10      30.00S
COVINGTON      CLOUDY    59  52  77 N15       30.00R
FRANKFORT      CLOUDY    61  52  72 NW3       29.99F
$$

KYZ054-064>069-076>088-106>120-281900-
SOUTHEAST KENTUCKY

CITY           SKY/WX    TMP DP  RH WIND       PRES   REMARKS
JACKSON        CLOUDY    62  54  74 VRB5      29.99S
LONDON         CLOUDY    64  52  64 VRB6      30.00F
SOMERSET       CLOUDY    61  50  67 SW8       30.03S
MIDDLESBORO    CLOUDY    65  51  62 N6        30.01R
MONTICELLO     CLOUDY    61  53  75 W14       30.04S
$$





USA.gov is the U.S. government's official web portal to all federal, state and local government web resources and services.